COSMOS 2215

Satellite information

Favourite Embed

Satellite Type and Status

PAYLOADIN ORBIT

Key statistics

Satellite COSMOS 2215 at a glance.

Uptime

11949

Days in orbit

Revolutions

≈ 12.6

Per day

Orbit

LEO

Low Earth Orbit

Inclination

82.6

Latest

Satellite identification and parameters

Extended collection of information and parameters for COSMOS 2215.

Object identification

Identified? True

Debris? False

Object name: COSMOS 2215

International designator: 1992-068E

Object number (NORAD): 22186

Object ID (CCSDS): 22186

Country: COMMONWEALTH OF INDEPENDENT STATES (CIS)

Current information (Y/N): Y

RCS size: MEDIUM

Orbital parameters

Period: 114.2 minutes

Inclination: 82.5985 deg

SMA: 7797.16 km

Apoapsis: 1428.089 km

Periapsis: 1409.961 km

RAAN: 231.1935 deg

Eccentricy: 0.0011625

Argument of periapsis: 231.2644 deg

Mean anomaly: 128.7408 deg

Mean motion: 12.60950614 rev/day

Mean motion (dot): 0.00000026 rev/day2

B* drag term: 0.00009043 1/REarth

Two-line elements (TLE)

Creation date: July 8, 2025, 2:27 a.m.

Reference frame: TEME

Reference center: EARTH

Epoch: July 7, 2025, 9:01 p.m. UTC

TLE line 0: 0 COSMOS 2215

TLE line 1: 1 22186U 92068E 25188.87591482 .00000026 00000-0 90430-4 0 9990

TLE line 2: 2 22186 82.5985 231.1935 0011625 231.2644 128.7408 12.60950614505474

Live tracking on map

Real-time ground track for satellite COSMOS 2215.

In-orbit conjunctions

There are no conjunctions computed for COSMOS 2215, at the moment. Check back to stay up to date, as we update our databases every day.

Go to all conjunctions

Associated space launch

Second generation store-dump military communications satellite

COSMOS 2215 was lifted into orbit during the mission ‘Tsiklon-3 | Strela-3 83 to 88’, on board a Tsiklon-3 space rocket.

The launch took place on Oct. 20, 1992, 12:58 p.m. from 32/1.

For more information about the launch, click the button.

Launch to space Tsiklon-3 | Strela-3 83 to 88
Tsiklon-3 | Strela-3 83 to 88

Agency: N/A

Status: Launch Successful

Launch date: Oct. 20, 1992, 12:58 p.m. UTC

Rocket: Tsiklon-3

Launch pad: 32/1

Location: Plesetsk Cosmodrome, Russian Federation

...

Latest news about this satellite

There are no fresh news available about this satellite. Check back as we update our databases every day.


Newsletter sign-up

Weekly statistics, charts and insights to help you stay on top of the space industry.